Regional Weather Roundup
Issued by NWS

Home | Current Version | Previous Version | Graphics & Text | Print | Product List | Glossary On
Versions: 1 2 3 4 5 6 7 8 9 10 11 12 13 14 15 16 17 18 19 20 21 22 23 24 25 26 27 28 29 30 31 32 33 34 35 36 37 38 39 40 41 42 43 44 45 46 47 48 49 50
000
ASUS45 KCYS 261310
RWRWY

WYOMING REGIONAL WEATHER ROUNDUP
NATIONAL WEATHER SERVICE CHEYENNE WY
700 AM MDT THU MAR 26 2015

NOTE:  "FAIR" INDICATES FEW OR NO CLOUDS BELOW 12,000 FEET
WITH NO SIGNIFICANT WEATHER AND/OR OBSTRUCTIONS TO VISIBILITY.

WYZ001-261400-
YELLOWSTONE NATIONAL PARK

CITY           SKY/WX    TMP DP  RH WIND       PRES   REMARKS
LK YELLOWSTONE   N/A     25  21  85 CALM      30.36R
W YELLOWSTONE  NOT AVBL

$$
WYZ002>013-054>058-071-098>099-261400-
NORTHERN WYOMING

CITY           SKY/WX    TMP DP  RH WIND       PRES   REMARKS
JACKSON        CLEAR     16  16 100 N12       30.39R WCI   3
CODY           CLOUDY    45  21  39 W16G24    30.19S
GREYBULL       MOCLDY    38  24  57 S5        30.19S WCI  34
WORLAND        FAIR      29  22  75 S8        30.20R WCI  21
SHERIDAN       CLOUDY    46  31  55 NW18G25   30.17R
BUFFALO        CLOUDY    41  31  67 N13G20    30.16R
GILLETTE       LGT RAIN  38  33  82 W16       30.14R WCI  29
HULETT         DRIZZLE   41  30  65 W10G16    30.10F
NEWCASTLE      FAIR      32  32 100 NW5       30.14S WCI  27

$$
WYZ014>020-022>026-101>103-261400-
CENTRAL WYOMING

CITY           SKY/WX    TMP DP  RH WIND       PRES   REMARKS
BIG PINEY      FAIR      17  12  80 CALM      30.33R
PINEDALE       PTSUNNY   23  18  80 N3        30.32R
DUBOIS         FAIR      32  18  55 NW23G32   30.28R WCI  19
LANDER         FAIR      32  16  51 CALM      30.21R
RIVERTON       FAIR      38  19  46 NW15      30.22R WCI  29
CASPER         FAIR      32  20  61 SW8       30.19S WCI  25
DOUGLAS        MOCLDY    33  23  66 NW9       30.17R WCI  25

$$
WYZ021-027>030-104>119-261400-
SOUTHERN WYOMING

CITY           SKY/WX    TMP DP  RH WIND       PRES   REMARKS
EVANSTON       FAIR      27  18  69 S7        30.38S WCI  19
FORT BRIDGER   FAIR      31  24  75 W13       30.39R WCI  21
ROCK SPRINGS   FAIR      29  19  66 W22       30.32F WCI  15
DIXON          FAIR      22  17  82 CALM      30.39S
RAWLINS        FAIR      28  18  66 SW15      30.29S WCI  16
SARATOGA       FAIR      30  19  64 CALM      30.31S
LARAMIE        CLOUDY    27  16  63 SW7       30.22R WCI  19
CHEYENNE       MOCLDY    34  17  50 W16       30.18R WCI  24
TORRINGTON     CLOUDY    27  23  85 W7        30.15S WCI  19
PINE BLUFFS    CLOUDY    30  25  80 NW8       30.18S WCI  23

$$



USA.gov is the U.S. government's official web portal to all federal, state and local government web resources and services.